Location: Arroyo Retuerta
(40.5469°N, 4.3534°W)
Time: 03:55:14
(UTC+00:00)

OE (NEXTSAT) - Visible Passes

Search period start: 23 September 2020 00:00
Search period end: 03 October 2020 00:00
Orbit: 431 x 438 km, 46.0° (Epoch: 22 September)

Date Brightness Start Highest point End Pass type
(mag) Time Alt. Az. Time Alt. Az. Time Alt. Az.
23 Sep 6.4 19:04:41 10° SSE 19:06:14 13° SE 19:06:27 13° SE visible
24 Sep 5.4 19:56:52 10° SW 19:59:10 36° SSW 19:59:10 36° SSW visible
25 Sep 4.9 19:13:53 10° SW 19:17:08 39° SSE 19:18:25 27° E visible
25 Sep 7.6 20:51:22 10° W 20:51:42 12° W 20:51:42 12° W visible
26 Sep 5.4 18:31:01 10° SSW 18:34:03 28° SE 18:37:05 10° E visible
26 Sep 5.4 20:08:05 10° W 20:10:47 45° WNW 20:10:47 45° WNW visible
27 Sep 4.4 19:24:51 10° WSW 19:28:19 73° NNW 19:29:44 33° NE visible
28 Sep 4.3 18:41:40 10° WSW 18:45:08 86° SSE 18:48:35 10° ENE visible
28 Sep 6.4 20:19:47 10° WNW 20:21:51 27° NW 20:21:51 27° NW visible
29 Sep 5.4 19:36:28 10° W 19:39:44 38° NNW 19:40:37 32° NNE visible
30 Sep 5.2 18:53:09 10° W 18:56:29 43° NNW 18:59:20 13° NE visible
30 Sep 7.1 20:31:25 10° WNW 20:32:34 18° NW 20:32:34 18° NW visible
01 Oct 5.7 19:48:08 10° WNW 19:51:15 31° N 19:51:15 31° N visible
02 Oct 5.6 19:04:51 10° WNW 19:08:01 32° N 19:09:54 19° NE visible
02 Oct 7.6 20:42:43 10° WNW 20:43:08 13° WNW 20:43:08 13° WNW visible
